星链-4646 (STARLINK-4646 )

导读

STARLINK-4646是美国太空探索技术公司星链计划中的卫星,于2022年9月5日发射升空,属于星链星座组网卫星。它旨在为全球提供低延迟、高速率的宽带互联网服务,尤其覆盖偏远等网络基础设施薄弱区域,依托近地轨道部署,助力全球互联网络覆盖的完善。

基本信息
目录编号:
53737
目录名称:
STARLINK-4646
国际标识:
2022-107AP
轨道中心:
EARTH
卫星名称:
星链-4646
卫星全名:
星链-4646 (STARLINK-4646 )
卫星状态:
已陨落 最后检测时间 2026-02-10
发射日期:
2022-09-05 UTC
国别 :
美国 (US)
星等 :
--
该卫星已列入 空间交会检测服务 Space Conjunction Data Service (SCDS) ,当前飞行风险评估等级: 无高风险
轨道信息
数据来源 国际轨道数据
星历时间: 2026-02-10T11:32:17+0800
轨道信息已过期214天
半长轴: 6586.513km
偏心率: 0.0007259
轨道倾角: 53.173°
近地点辐角 205.084°
升交点赤经 312.328°
平近点角 154.985°
近地点: 203.594km
远地点: 213.158km
周期: 88.663分钟
每日圈数: 16.24125
详细信息
固有亮度:
5
最大亮度:
2.5
卫星平台:
Starlink v1.5
覆盖范围:
全球
运营商:
太空探索技术公司
运营商所在国:
美国
制造商(研发单位):
太空探索技术公司
制造商所在国:
美国
使用方式:
暂无
卫星简介
星链(Starlink)计划是由太空探索技术公司(SpaceX)提出的一个巨型低轨卫星互联网星座项目,计划在2019年至2024年间在太空搭建由约1.2万颗卫星组成的“星链”网络,其中1584颗将部署在地球上空550千米处的近地轨道,并从2020年开始工作。该卫星仍在工作。
与全量物体交会距离演化趋势
与全量物体交会风险概率演化趋势